This is the latest recevied weather packets stored in our database for station/object IW5CTE-13. If no packets are shown the sender has not sent any weather packets the latest 10 day(s).
| Time | Temp. | Humidity | Pressure | Rain* | Wind** | Luminosity | Snow |
|---|---|---|---|---|---|---|---|
| 1777604851 | 11.11° C | 41% | 1024 hPa | - | - | - | - |
| 1777604251 | 11.67° C | 41% | 1024 hPa | - | - | - | - |
| 1777603651 | 11.67° C | 40% | 1024 hPa | - | - | - | - |
| 1777603051 | 12.22° C | 38% | 1024 hPa | - | - | - | - |
| 1777602451 | 12.22° C | 37% | 1023.9 hPa | - | - | - | - |
| 1777601851 | 12.22° C | 36% | 1023.8 hPa | - | - | - | - |
| 1777601251 | 12.22° C | 35% | 1023.7 hPa | - | - | - | - |
| 1777600651 | 12.22° C | 35% | 1023.8 hPa | - | - | - | - |
| 1777600051 | 12.22° C | 35% | 1023.7 hPa | - | - | - | - |
| 1777599452 | 12.22° C | 35% | 1023.7 hPa | - | - | - | - |
| 1777598853 | 12.22° C | 37% | 1023.5 hPa | - | - | - | - |
| 1777598251 | 12.22° C | 35% | 1023.4 hPa | - | - | - | - |
| 1777597051 | 12.22° C | 33% | 1023.4 hPa | - | - | - | - |
| 1777596451 | 12.22° C | 33% | 1023.4 hPa | - | - | - | - |
| 1777595851 | 12.22° C | 32% | 1023.3 hPa | - | - | - | - |
| 1777595251 | 12.22° C | 34% | 1023.4 hPa | - | - | - | - |
| 1777594651 | 12.22° C | 34% | 1023.4 hPa | - | - | - | - |
| 1777594051 | 12.78° C | 36% | 1023.2 hPa | - | - | - | - |
| 1777593452 | 12.78° C | 35% | 1023.3 hPa | - | - | - | - |
| 1777592851 | 12.78° C | 33% | 1023.2 hPa | - | - | - | - |
| 1777592251 | 12.78° C | 33% | 1023.1 hPa | - | - | - | - |
| 1777591651 | 12.78° C | 34% | 1023.1 hPa | - | - | - | - |
| 1777591051 | 12.78° C | 33% | 1023 hPa | - | - | - | - |
| 1777589851 | 13.89° C | 30% | 1022.7 hPa | - | - | - | - |
| 1777589251 | 13.89° C | 31% | 1022.7 hPa | - | - | - | - |
* Rain since midnight (hover to see other rain measurements)
** Current wind speed in m/s (hover to see current wind gust speed)